Location: Derby
(52.9213°N, 1.4761°W)
Time: 01:19:12
(UTC+01:00)

A-11 Canister half - Pass Details

Date: 20 May 2025
Orbit: 1524 x 1684 km, 47.3° (Epoch: 12 June)

Event Time Altitude Azimuth Distance (km) Brightness Sun altitude
Rises 00:16:41 0° 275° (W) 4,769 11.8 -16.4°
Reaches altitude 10° 00:19:48 10° 272° (W) 3,804 11.2 -16.5°
Maximum altitude 00:29:10 56° 198° (SSW) 1,891 9.1 -16.7°
Drops below altitude 10° 00:38:49 10° 124° (SE) 3,914 10.8 -16.9°
Sets 00:42:04 0° 120° (ESE) 4,914 11.3 -17.0°
